Flag for Bolivia Weather past 2 weeks in Cochabamba, Bolivia

Now
66 °F

Partly cloudy.


Feels Like: 66 °F
Forecast: 53 / 74 °F
Wind: No wind

Location: Cochabamba Airport

Current Time: Oct 22, 2014 at 11:07:54 PM

Latest Report: Oct 22, 2014 at 10:00 PM


Visibility: N/A

Pressure: 30.33 "Hg

Humidity: 49%

Dew point: 46 °F

Location of CochabambaLocation

Historic Weather in Cochabamba — Graph

°F

Cochabamba temperature yesterday

Maximum temperature yesterday: 70 °F (at 2:00 PM)
Minimum temperature yesterday: 54 °F (at 4:00 AM)
Average temperature yesterday: 60 °F

Past Weeks' High & Low Weather Summary

 TemperatureHumidityPressure
High88 °F (Oct 9, 3:00 PM)94% (Oct 8, 3:00 AM)30.48 "Hg (Oct 8, 3:00 AM)
Low46 °F (Oct 18, 6:00 AM)8% (Oct 15, 4:00 PM)30.01 "Hg (Oct 9, 3:00 PM)
Average66 °F48%30.28 "Hg
* Reported Oct 7 10:00 PM — Oct 22 10:00 PM, Cochabamba, Weather by CustomWeather, © 2014

Note: Actual official high and low records may vary slightly from our data, if they occured in-between our weather recording intervals... More about our weather records

Advertising

Cochabamba weather history for previous 24 hours

 ConditionsComfort  
Time TempWeatherWind HumidityBarometerVisibility
10:00 PM
Oct 22
66 °FPartly cloudy.No wind49%30.33 "HgN/A
9:00 PM66 °FPartly cloudy.No wind49%30.30 "HgN/A
8:00 PM68 °FPassing clouds.No wind46%30.27 "HgN/A
7:00 PM70 °FPassing clouds.3 mph43%30.24 "HgN/A
6:00 PM73 °FPartly sunny.5 mph38%30.21 "HgN/A
5:00 PM75 °FPartly sunny.7 mph34%30.21 "HgN/A
4:00 PM75 °FPassing clouds.5 mph34%30.21 "HgN/A
3:00 PM73 °FBroken clouds.6 mph38%30.24 "HgN/A
2:00 PM73 °FPartly sunny.6 mph38%30.27 "HgN/A
1:00 PM73 °FPartly sunny.7 mph38%30.30 "HgN/A
12:00 PM73 °FPartly sunny.5 mph38%30.36 "HgN/A
11:00 AM70 °FPartly sunny.No wind43%30.39 "HgN/A
10:00 AM64 °FPartly sunny.5 mph64%30.39 "Hg5 mi
9:00 AM61 °FPartly sunny.No wind77%30.42 "Hg2 mi
8:00 AM59 °FBroken clouds.No wind77%30.39 "Hg1 mi
7:00 AM57 °FBroken clouds.No wind88%30.36 "Hg1 mi
6:00 AM54 °FBroken clouds.No wind94%30.36 "Hg3 mi
5:00 AM54 °FPartly cloudy.No wind94%30.36 "Hg6 mi
4:00 AM54 °FPartly cloudy.No wind94%30.33 "HgN/A
3:00 AM54 °FPartly cloudy.No wind82%30.33 "HgN/A
2:00 AM55 °FPartly cloudy.No wind82%30.33 "HgN/A
1:00 AM55 °FPartly cloudy.5 mph88%30.36 "HgN/A
12:00 AM57 °FPartly cloudy.No wind82%30.39 "HgN/A
11:00 PM
Oct 21
57 °FPartly cloudy.No wind82%30.39 "HgN/A
Weather by CustomWeather, © 2014

See weather overviewHow to use our weather pages